Regional Weather Roundup
Issued by NWS

Home | Current Version | Previous Version | Graphics & Text | Print | Product List | Glossary On
Versions: 1 2 3 4 5 6 7 8 9 10 11 12 13 14 15 16 17 18 19 20 21 22 23 24 25 26 27 28 29 30 31 32 33 34 35 36 37 38 39 40 41 42 43 44 45 46 47 48 49 50
000
ASUS43 KBIS 011001
RWRND

NORTH DAKOTA REGIONAL WEATHER ROUNDUP
NATIONAL WEATHER SERVICE BISMARCK ND
400 AM CST SUN MAR 01 2015

NOTE: "FAIR" INDICATES FEW OR NO CLOUDS BELOW 12,000 FEET WITH NO
SIGNIFICANT WEATHER AND/OR OBSTRUCTIONS TO VISIBILITY.


NDZ001>003-009>011-017-011100-
NORTHWEST NORTH DAKOTA

CITY           SKY/WX    TMP DP  RH WIND       PRES   REMARKS
WILLISTON      CLOUDY    12   8  84 SW6       30.14S WCI   3
MINOT          CLOUDY    11   2  67 W12       30.09F WCI  -3
$$

NDZ018>021-031>035-040>046-011100-
SOUTHWEST NORTH DAKOTA

CITY           SKY/WX    TMP DP  RH WIND       PRES   REMARKS
BISMARCK       CLEAR      5   0  79 SW6       30.18F WCI  -6
DICKINSON      PTCLDY    12   5  73 W16       30.10S WCI  -5
GARRISON         N/A      6   1  80 W8        30.11F WCI  -7
HETTINGER ARPT MOCLDY     5   1  83 NW5       30.15S WCI  -4
$$

NDZ004>008-012>016-024-026-027-054-011100-
NORTHEAST NORTH DAKOTA

CITY           SKY/WX    TMP DP  RH WIND       PRES   REMARKS
GRAND FORKS    CLEAR      2  -4  76 W9        30.15F WCI -13
GRND FRKS AFB  CLEAR      2  -4  75 W9        30.14F WCI -12
DEVILS LAKE    PTCLDY     1  -8  66 W13       30.10F WCI -16
$$

NDZ022-023-025-028>030-036>039-047>053-011100-
SOUTHEAST NORTH DAKOTA

CITY           SKY/WX    TMP DP  RH WIND       PRES   REMARKS
FARGO          CLEAR     -2  -8  76 SW9       30.21S WCI -18
JAMESTOWN      CLEAR      1  -4  79 SW3       30.14F
$$




USA.gov is the U.S. government's official web portal to all federal, state and local government web resources and services.